TimeICT,TemperatureF,Dew PointF,Humidity,Sea Level PressureIn,VisibilityMPH,Wind Direction,Wind SpeedMPH,Gust SpeedMPH,PrecipitationIn,Events,Conditions,WindDirDegrees,DateUTC
12:00 AM,77.0,73.4,89,29.86,5.6,Calm,Calm,-,N/A,,Mostly Cloudy,0,2013-02-20 17:00:00
12:30 AM,75.2,73.4,94,29.86,5.6,Calm,Calm,-,N/A,,Scattered Clouds,0,2013-02-20 17:30:00
1:00 AM,78,74,86,29.81,6,Calm,Calm,,,,Scattered Clouds,,2013-02-20 18:00:00
1:00 AM,75.2,73.4,94,29.83,5.6,Calm,Calm,-,N/A,,Scattered Clouds,0,2013-02-20 18:00:00
2:00 AM,77.0,71.6,83,29.83,5.6,Calm,Calm,-,N/A,,Scattered Clouds,0,2013-02-20 19:00:00
3:30 AM,77.0,69.8,78,29.80,5.6,Calm,Calm,-,N/A,,Scattered Clouds,0,2013-02-20 20:30:00
4:00 AM,77.0,69.8,78,29.80,5.6,East,6.9,-,N/A,,Scattered Clouds,90,2013-02-20 21:00:00
4:30 AM,77.0,69.8,78,29.80,5.6,Calm,Calm,-,N/A,,Scattered Clouds,0,2013-02-20 21:30:00
5:00 AM,77.0,69.8,78,29.80,5.6,Calm,Calm,-,N/A,,Scattered Clouds,0,2013-02-20 22:00:00
5:30 AM,75.2,69.8,83,29.80,5.6,Calm,Calm,-,N/A,,Scattered Clouds,0,2013-02-20 22:30:00
6:00 AM,73.4,69.8,88,29.80,5.6,Calm,Calm,-,N/A,,Scattered Clouds,0,2013-02-20 23:00:00
6:30 AM,73.4,71.6,94,29.80,5.6,East,4.6,-,N/A,,Scattered Clouds,100,2013-02-20 23:30:00
7:00 AM,74,72,90,29.78,5,Calm,Calm,,,,Mist,,2013-02-21 00:00:00
7:00 AM,75.2,75.2,100,29.80,5.0,NE,5.8,-,N/A,,Mostly Cloudy,50,2013-02-21 00:00:00
7:30 AM,73.4,69.8,88,29.80,4.3,Calm,Calm,-,N/A,,Mostly Cloudy,0,2013-02-21 00:30:00
8:00 AM,78.8,69.8,74,29.83,4.3,NNE,4.6,-,N/A,,Mostly Cloudy,30,2013-02-21 01:00:00
8:30 AM,82.4,69.8,66,29.83,5.6,ENE,4.6,-,N/A,,Mostly Cloudy,70,2013-02-21 01:30:00
9:00 AM,82.4,68.0,62,29.86,5.6,East,6.9,-,N/A,,Mostly Cloudy,80,2013-02-21 02:00:00
9:30 AM,84.2,68.0,58,29.86,5.6,Variable,4.6,-,N/A,,Mostly Cloudy,0,2013-02-21 02:30:00
10:00 AM,86.0,66.2,51,29.86,5.6,East,4.6,-,N/A,,Mostly Cloudy,100,2013-02-21 03:00:00
10:30 AM,86.0,64.4,48,29.86,5.0,East,6.9,-,N/A,,Mostly Cloudy,100,2013-02-21 03:30:00
11:00 AM,87.8,66.2,49,29.86,5.0,Variable,6.9,-,N/A,,Mostly Cloudy,0,2013-02-21 04:00:00
11:30 AM,87.8,64.4,46,29.86,5.0,East,8.1,-,N/A,,Mostly Cloudy,90,2013-02-21 04:30:00
12:00 PM,87.8,64.4,46,29.86,5.0,ESE,5.8,-,N/A,,Mostly Cloudy,110,2013-02-21 05:00:00
12:30 PM,89.6,64.4,43,29.83,5.0,East,8.1,-,N/A,,Mostly Cloudy,80,2013-02-21 05:30:00
1:00 PM,90,69,40,29.82,5,East,3.5,,,,Haze,80,2013-02-21 06:00:00
1:00 PM,91.4,64.4,41,29.80,5.0,East,6.9,-,N/A,,Mostly Cloudy,100,2013-02-21 06:00:00
1:30 PM,91.4,64.4,41,29.80,5.0,East,10.4,-,N/A,,Mostly Cloudy,100,2013-02-21 06:30:00
2:00 PM,91.4,64.4,41,29.80,5.0,East,8.1,-,N/A,,Mostly Cloudy,80,2013-02-21 07:00:00
2:30 PM,91.4,66.2,43,29.77,5.0,ENE,8.1,-,N/A,,Mostly Cloudy,70,2013-02-21 07:30:00
3:00 PM,87.8,69.8,55,29.77,5.0,Variable,6.9,-,N/A,,Mostly Cloudy,0,2013-02-21 08:00:00
3:30 PM,87.8,68.0,52,29.77,5.0,West,10.4,-,N/A,,Mostly Cloudy,270,2013-02-21 08:30:00
4:00 PM,87.8,69.8,55,29.77,5.0,West,11.5,-,N/A,,Mostly Cloudy,280,2013-02-21 09:00:00
4:30 PM,87.8,69.8,55,29.77,5.0,West,11.5,-,N/A,,Mostly Cloudy,280,2013-02-21 09:30:00
5:00 PM,86.0,69.8,58,29.77,5.0,West,11.5,-,N/A,,Mostly Cloudy,280,2013-02-21 10:00:00
5:30 PM,86.0,68.0,55,29.77,5.0,West,10.4,-,N/A,,Mostly Cloudy,280,2013-02-21 10:30:00
6:00 PM,86.0,69.8,58,29.80,5.0,West,10.4,-,N/A,,Mostly Cloudy,280,2013-02-21 11:00:00
6:30 PM,84.2,69.8,62,29.80,5.0,West,10.4,-,N/A,,Mostly Cloudy,280,2013-02-21 11:30:00
7:00 PM,85,73,59,29.77,5,West,4.6,,,,Mist,280,2013-02-21 12:00:00
7:00 PM,82.4,69.8,66,29.80,5.0,West,5.8,-,N/A,,Mostly Cloudy,270,2013-02-21 12:00:00
7:30 PM,82.4,71.6,70,29.83,5.0,West,4.6,-,N/A,,Mostly Cloudy,280,2013-02-21 12:30:00
8:00 PM,78.8,71.6,78,29.83,5.0,Calm,Calm,-,N/A,,Mostly Cloudy,0,2013-02-21 13:00:00
8:30 PM,78.8,71.6,78,29.86,5.6,Calm,Calm,-,N/A,,Mostly Cloudy,0,2013-02-21 13:30:00
9:00 PM,78.8,71.6,78,29.86,5.6,Calm,Calm,-,N/A,,Mostly Cloudy,0,2013-02-21 14:00:00
9:30 PM,80.6,71.6,74,29.89,5.6,Calm,Calm,-,N/A,,Mostly Cloudy,0,2013-02-21 14:30:00
10:00 PM,78.8,71.6,78,29.89,6.2,Calm,Calm,-,N/A,,Scattered Clouds,0,2013-02-21 15:00:00
10:30 PM,78.8,71.6,78,29.89,6.2,Calm,Calm,-,N/A,,Scattered Clouds,0,2013-02-21 15:30:00
11:00 PM,78.8,71.6,78,29.89,6.2,Calm,Calm,-,N/A,,Scattered Clouds,0,2013-02-21 16:00:00
11:30 PM,77.0,71.6,83,29.89,6.2,Calm,Calm,-,N/A,,Scattered Clouds,0,2013-02-21 16:30:00